Weather History for KBHM - December, 2014

Change the Weather History Date:

Sunday, December 21, 2014

  Actual Average Record
Temperature  
Mean Temperature 45 °F 45 °F  
Max Temperature 56 °F 55 °F 74 °F (2013)
Min Temperature 33 °F 35 °F 11 °F (1901)
Degree Days  
Heating Degree Days 20 20  
Month to date heating degree days 332 382  
Since 1 July heating degree days 894 840  
Moisture  
Dew Point 42 °F    
Average Humidity 83    
Maximum Humidity 100    
Minimum Humidity 66    
Precipitation  
Precipitation 0.00 in 0.12 in 2.32 in (1908)
Month to date precipitation 2.19 3.12  
Year to date precipitation 44.81 52.39  
Snow  
Snow 0.00 in 0.00 in - ()
Month to date snowfall 0.0 0.0  
Since 1 July snowfall 0.0 0.0  
Snow Depth 0.00 in    
Sea Level Pressure  
Sea Level Pressure 30.14 in    
Wind  
Wind Speed 5 mph (East)    
Max Wind Speed 13 mph    
Max Gust Speed 16 mph    
Visibility 8 miles    
Events      
T = Trace of Precipitation, MM = Missing Value Source: NWS Daily Summary

Daily Weather History Graph

Daily Weather History Graph

Search for Another Location

Airport or City:

Trip Planner

Search our weather history database for the weather conditions in past years. The results will help you decide how hot, cold, wet, or windy it might be!

Date:

Astronomy

Dec. 21, 2014 Rise Set
Actual Time 6:47 AM CST 4:42 PM CST
Civil Twilight 6:19 AM CST 5:10 PM CST
Nautical Twilight 5:48 AM CST 5:41 PM CST
Astronomical Twilight 5:18 AM CST 6:12 PM CST
Moon 6:06 AM CST (12/21) 4:45 PM CST (12/21)
Length of Visible Light 10h 50m
Length of Day
9h 55m
Waning Crescent, 0% of the Moon is Illuminated
Dec 21
Waning Crescent
Dec 21
New
Dec 28
First Quarter
Jan 4
Full
Jan 13
Last Quarter

Hourly Weather History & Observations

Time (CST) Temp. Windchill Dew Point Humidity Pressure Visibility Wind Dir Wind Speed Gust Speed Precip Events Conditions
12:53 AM 35.1 °F - 33.1 °F 92% 30.21 in 7.0 mi Calm Calm - N/A   Clear
1:53 AM 35.1 °F - 33.1 °F 92% 30.21 in 8.0 mi Calm Calm - N/A   Clear
2:53 AM 36.0 °F - 35.1 °F 97% 30.22 in 6.0 mi Calm Calm - N/A   Partly Cloudy
3:30 AM 37.9 °F 34.4 °F 36.0 °F 93% 30.21 in 7.0 mi NNE 4.6 mph - N/A   Overcast
3:38 AM 39.9 °F 35.8 °F 37.0 °F 89% 30.21 in 7.0 mi NE 5.8 mph - N/A   Overcast
3:53 AM 42.1 °F 40.2 °F 37.9 °F 85% 30.20 in 7.0 mi NE 3.5 mph - N/A   Overcast
4:29 AM 43.0 °F 40.3 °F 39.0 °F 86% 30.19 in 8.0 mi NE 4.6 mph - N/A   Overcast
4:53 AM 42.1 °F - 37.9 °F 85% 30.19 in 8.0 mi Calm Calm - N/A   Overcast
5:53 AM 43.0 °F - 39.0 °F 86% 30.19 in 7.0 mi Calm Calm - N/A   Scattered Clouds
6:23 AM 41.0 °F 37.1 °F 37.9 °F 89% 30.19 in 7.0 mi North 5.8 mph - N/A   Mostly Cloudy
6:35 AM 42.1 °F 38.4 °F 39.0 °F 89% 30.19 in 7.0 mi North 5.8 mph - N/A   Overcast
6:53 AM 43.0 °F 40.3 °F 39.9 °F 89% 30.20 in 7.0 mi NNE 4.6 mph - N/A   Overcast
7:53 AM 45.0 °F 43.5 °F 42.1 °F 90% 30.20 in 6.0 mi NNE 3.5 mph - N/A   Overcast
8:18 AM 46.9 °F - 42.1 °F 83% 30.19 in 7.0 mi East 4.6 mph - N/A   Scattered Clouds
8:53 AM 46.0 °F 42.5 °F 41.0 °F 83% 30.20 in 7.0 mi East 6.9 mph - N/A   Mostly Cloudy
9:09 AM 46.9 °F - 42.1 °F 83% 30.19 in 7.0 mi East 8.1 mph - N/A   Mostly Cloudy
9:53 AM 48.9 °F - 43.0 °F 80% 30.21 in 9.0 mi East 10.4 mph - N/A   Mostly Cloudy
10:53 AM 50.0 °F - 43.0 °F 77% 30.18 in 9.0 mi Variable 4.6 mph - N/A   Mostly Cloudy
11:53 AM 53.1 °F - 43.0 °F 69% 30.13 in 10.0 mi East 4.6 mph - N/A   Mostly Cloudy
12:53 PM 54.0 °F - 44.1 °F 69% 30.11 in 10.0 mi ESE 5.8 mph - N/A   Mostly Cloudy
1:53 PM 55.9 °F - 45.0 °F 67% 30.09 in 10.0 mi SE 5.8 mph - N/A   Mostly Cloudy
2:53 PM 55.4 °F - 44.6 °F 67% 30.08 in 10.0 mi SE 3.5 mph - N/A   Overcast
3:53 PM 55.0 °F - 46.0 °F 72% 30.07 in 10.0 mi SE 8.1 mph - N/A   Overcast
4:53 PM 54.0 °F - 46.0 °F 75% 30.06 in 10.0 mi ESE 8.1 mph - N/A   Overcast
5:53 PM 53.1 °F - 46.0 °F 77% 30.08 in 10.0 mi ESE 4.6 mph - N/A   Overcast
6:53 PM 53.1 °F - 46.0 °F 77% 30.08 in 10.0 mi Variable 3.5 mph - N/A   Overcast
7:53 PM 52.0 °F - 46.0 °F 80% 30.07 in 10.0 mi ESE 4.6 mph - N/A   Overcast
8:36 PM 52.0 °F - 46.0 °F 80% 30.08 in 10.0 mi East 4.6 mph - N/A   Overcast
8:53 PM 52.0 °F - 46.0 °F 80% 30.07 in 10.0 mi East 4.6 mph - N/A   Overcast
9:53 PM 51.1 °F - 46.0 °F 83% 30.07 in 10.0 mi East 5.8 mph - N/A   Overcast
10:53 PM 51.1 °F - 46.9 °F 86% 30.05 in 10.0 mi East 9.2 mph - N/A   Overcast
11:07 PM 50.0 °F - 46.9 °F 89% 30.05 in 10.0 mi East 6.9 mph - N/A   Overcast
11:53 PM 50.0 °F - 46.9 °F 89% 30.04 in 10.0 mi East 6.9 mph - N/A   Overcast